[[{"header":{"parameterUnit":"m.s-1","parameterCategory":1,"la1":30.2992,"la2":30.254,"lo1":-89.0895,"lo2":-89.0443,"dy":0.0025,"dx":0.0025,"nx":19,"ny":19,"refTime":"2026-04-24T21:00:00:Z","depth":0,"parameterNumber":2,"parameterNumberName":"U-component_of_WINDS"},"data":[0,0,0,0.9624,0.9625,0.9678,0.9678,0.975,0.9751,0,0,0,0,0,0,0,0,0,0,0,0.9611,0.9611,0.9624,0.9625,0.9678,0.9678,0.975,0.9751,0,0,0,0,0,0,0,0,0,0,0,0.961,0.9611,0.9612,0.9625,0.9678,0.9678,0.975,0.9708,0,0,0,0,0,0,0,0,0,0,0.9656,0.9646,0.9611,0.9612,0.9626,0.9678,0.9678,0.9706,0.9711,0.9728,0,0.9743,0,0.9748,0.9756,0.9756,0,0,0,0.9623,0.9643,0.9655,0.9612,0.9626,0.9678,0.9654,0.9709,0.9714,0.9734,0.9744,0.9747,0.9749,0.9756,0.9757,0.9861,0.9861,0,0,0.9621,0.9621,0.9651,0.9658,0.965,0.9652,0.9655,0.9712,0.9723,0.9745,0.9749,0.9751,0.9757,0.9757,0.986,0.9861,0,0,0,0.9613,0.9619,0.963,0.9655,0.9665,0.9654,0.9657,0.9721,0.9724,0.9749,0.9752,0.9757,0.9758,0.986,0.986,0.989,0,0,0,0.9612,0.9615,0.9629,0.963,0.9664,0.9693,0.9665,0.972,0.9727,0.9751,0.9757,0.9759,0.9859,0.986,0.9888,0.9904,0,0,0,0.9606,0.9615,0.9623,0.963,0.9653,0.9692,0.9699,0.9722,0.9728,0.9756,0.9759,0.9858,0.986,0.9886,0.9901,0.9932,0,0,0,0.9601,0.9648,0.9624,0.9677,0.9652,0.971,0.9699,0.9742,0.9769,0.9758,0.9859,0.986,0.9885,0.9899,0.993,0.9959,0.9971,0,0,0.9661,0.9655,0.9687,0.9666,0.9729,0.9702,0.9769,0.9793,0.9795,0.9839,0.9841,0.9889,0.99,0.9932,1.0038,1.0047,0,0,0,0.9706,0.9729,0.9745,0.9771,0.9791,0.981,0.9824,0.9833,0.987,0.9817,0.9908,0.9915,0.9933,0.9947,0.9956,0.9971,0.9867,0.9866,0.9866,0.9792,0.9792,0.9844,0.9851,0.9877,0.9891,0.9912,0.9927,0.9919,0.994,0.9953,1.0018,1.0034,1.004,1.0057,0.9968,0.9969,0.9969,0.9969,0.988,0.9912,0.9901,0.9948,0.9948,0.9987,1.0003,0.9996,1.0033,1.0008,1.0024,0.9996,1.0051,1.0065,0.9971,0.9971,0.997,0.997,0.997,0.9936,0.9952,0.9962,1.0001,1.0032,1.0037,1.0073,1.0071,1.007,1.0086,1.01,1.01,1.01,1.0093,1.0093,1.0094,1.0094,1.0094,1.0094,0.9991,1.0002,1.0033,1.0058,1.0076,1.0099,1.0114,1.0131,1.015,1.0146,1.0146,1.0136,1.0056,1.0036,1.0098,1.0097,1.0096,1.0096,1.0096,1.008,1.006,1.0108,1.0125,1.0156,1.0187,1.0185,1.022,1.0234,1.0252,1.0239,1.0179,1.0174,1.0167,1.0151,1.0238,1.0238,1.0238,1.0238,1.0128,1.0125,1.0174,1.0203,1.023,1.0234,1.0288,1.0301,1.0311,1.032,1.0307,1.0285,1.0278,1.0276,1.0267,1.0252,1.0364,1.0364,1.0364,1.0184,1.0184,1.023,1.024,1.0265,1.0286,1.0337,1.037,1.0377,1.0369,1.0327,1.0322,1.0286,1.0274,1.0265,1.0251,1.0223,0,0]},{"header":{"parameterUnit":"m.s-1","parameterCategory":1,"la1":30.2992,"la2":30.254,"lo1":-89.0895,"lo2":-89.0443,"dy":0.0025,"dx":0.0025,"nx":19,"ny":19,"refTime":"2026-04-24T21:00:00:Z","depth":0,"parameterNumber":3,"parameterNumberName":"V-component_of_WINDS"},"data":[0,0,0,0.5141,0.5145,0.5363,0.5364,0.5615,0.5617,0,0,0,0,0,0,0,0,0,0,0,0.5059,0.506,0.5141,0.5146,0.5363,0.5364,0.5614,0.5617,0,0,0,0,0,0,0,0,0,0,0,0.5058,0.5059,0.5061,0.5146,0.5363,0.5364,0.5614,0.546,0,0,0,0,0,0,0,0,0,0,0.5253,0.5159,0.5059,0.5061,0.5148,0.5363,0.5364,0.5453,0.5469,0.5504,0,0.5528,0,0.5576,0.5631,0.5632,0,0,0,0.5159,0.5145,0.522,0.5061,0.5149,0.5362,0.5269,0.5462,0.5481,0.5525,0.5532,0.5542,0.558,0.5633,0.5634,0.5784,0.5784,0,0,0.5147,0.5088,0.5207,0.5231,0.5195,0.5262,0.5275,0.5474,0.5478,0.5533,0.5549,0.5584,0.5634,0.5636,0.5784,0.5784,0,0,0,0.5104,0.5079,0.515,0.522,0.5261,0.5268,0.5284,0.5469,0.5497,0.5552,0.5587,0.5636,0.5638,0.5784,0.5784,0.5729,0,0,0,0.5097,0.5054,0.5144,0.511,0.5257,0.5368,0.5273,0.5483,0.5508,0.5586,0.5636,0.5641,0.5784,0.5784,0.573,0.5713,0,0,0,0.5051,0.5049,0.5074,0.5106,0.5198,0.5366,0.5406,0.549,0.5529,0.5632,0.5641,0.5784,0.5784,0.5732,0.5715,0.5735,0,0,0,0.4984,0.5022,0.5072,0.5129,0.5195,0.533,0.5405,0.5509,0.5591,0.5637,0.5784,0.5784,0.5732,0.5717,0.5736,0.5741,0.5738,0,0,0.5,0.5022,0.506,0.5111,0.5221,0.5301,0.5405,0.5537,0.5601,0.5719,0.5724,0.573,0.5716,0.5736,0.5738,0.5735,0,0,0,0.5045,0.5072,0.5114,0.5189,0.5289,0.5375,0.5496,0.5545,0.5649,0.5649,0.5744,0.5738,0.5752,0.5757,0.5754,0.577,0.5784,0.5784,0.5784,0.4982,0.5062,0.513,0.5236,0.5307,0.5433,0.5499,0.5586,0.5646,0.5667,0.5703,0.5694,0.5698,0.5697,0.5712,0.5712,0.5712,0.5711,0.5711,0.5012,0.5062,0.514,0.5235,0.5319,0.5399,0.5522,0.5561,0.5649,0.5674,0.5691,0.5711,0.569,0.5709,0.5708,0.5709,0.5709,0.5709,0.571,0.498,0.5018,0.5076,0.5193,0.5274,0.538,0.546,0.5535,0.5605,0.5622,0.5668,0.5669,0.568,0.5638,0.5638,0.5638,0.5638,0.5638,0.5638,0.4923,0.4991,0.5049,0.5159,0.5217,0.5303,0.5429,0.5489,0.5574,0.5622,0.5622,0.568,0.5673,0.567,0.5638,0.5638,0.5638,0.5638,0.5638,0.4924,0.4936,0.5025,0.5083,0.5219,0.5295,0.5388,0.5503,0.5563,0.5601,0.5656,0.5638,0.5667,0.567,0.5668,0.5638,0.5638,0.5638,0.5638,0.4897,0.4918,0.5027,0.5115,0.521,0.5303,0.5403,0.5502,0.5606,0.5648,0.5664,0.5667,0.5666,0.5696,0.5698,0.5698,0.5675,0.5676,0.5676,0.4902,0.4936,0.5006,0.5107,0.5219,0.5313,0.541,0.5508,0.5629,0.5679,0.5683,0.5682,0.5688,0.5686,0.5735,0.5737,0.5737,0,0]}]]